Weather History for Key West NAF, FL

Change the Weather History Date:

Thursday, May 1, 2014

  Actual Average Record
Temperature  
Mean Temperature 84 °F -  
Max Temperature 87 °F 82 °F 90 °F (2011)
Min Temperature 80 °F 73 °F 64 °F (1992)
Cooling Degree Days 18    
Growing Degree Days 34 (Base 50)    
Moisture  
Dew Point 74 °F    
Average Humidity 78    
Maximum Humidity 87    
Minimum Humidity 65    
Precipitation  
Precipitation 0.00 in - - ()
Sea Level Pressure  
Sea Level Pressure 29.99 in    
Wind  
Wind Speed 13 mph (SE)    
Max Wind Speed 17 mph    
Max Gust Speed 26 mph    
Visibility 10 miles    
Events      
Averages and records for this station are not official NWS values.
T = Trace of Precipitation, MM = Missing Value Source: NWS Daily Summary

Daily Weather History Graph

Daily Weather History Graph

Search for Another Location

Airport:

Trip Planner

Search our weather history database for the weather conditions in past years. The results will help you decide how hot, cold, wet, or windy it might be!

Date:

Astronomy

May. 01, 2014 Rise Set
Actual Time 6:51 AM EDT 7:56 PM EDT
Civil Twilight 6:27 AM EDT 8:20 PM EDT
Nautical Twilight 5:59 AM EDT 8:48 PM EDT
Astronomical Twilight 5:30 AM EDT 9:17 PM EDT
Moon 8:44 AM EDT (5/1) 10:21 PM EDT (5/1)
Length of Visible Light 13h 52m
Length of Day
13h 04m
Waxing Crescent, 6% of the Moon is Illuminated
May 1
Waxing Crescent
May 6
First Quarter
May 14
Full
May 21
Last Quarter
May 28
New

Hourly Weather History & Observations

Time (EDT) Temp. Heat Index Dew Point Humidity Pressure Visibility Wind Dir Wind Speed Gust Speed Precip Events Conditions
12:53 AM 80.1 °F 85.4 °F 75.9 °F 87% 30.02 in 10.0 mi ESE 12.7 mph - N/A   Partly Cloudy
1:51 AM 80.6 °F 86.2 °F 75.2 °F 84% 30.02 in 10.0 mi ESE 13.8 mph - N/A   Mostly Cloudy
1:53 AM 80.1 °F 85.4 °F 75.9 °F 87% 30.02 in 10.0 mi ESE 11.5 mph - N/A   Mostly Cloudy
2:32 AM 80.1 °F 85.1 °F 75.0 °F 85% 30.01 in 10.0 mi ESE 11.5 mph - N/A   Scattered Clouds
2:53 AM 80.1 °F 85.1 °F 75.0 °F 85% 30.01 in 10.0 mi SE 16.1 mph - N/A   Clear
3:53 AM 80.1 °F 84.5 °F 73.9 °F 81% 29.99 in 10.0 mi SE 15.0 mph - N/A   Clear
4:53 AM 80.1 °F 84.5 °F 73.9 °F 81% 29.98 in 10.0 mi ESE 11.5 mph - N/A   Clear
5:53 AM 80.1 °F 84.5 °F 73.9 °F 81% 29.98 in 10.0 mi SE 12.7 mph - N/A   Clear
5:59 AM 80.1 °F 84.5 °F 73.9 °F 81% 29.98 in 10.0 mi SE 13.8 mph - N/A   Scattered Clouds
6:53 AM 80.1 °F 84.5 °F 73.9 °F 81% 29.99 in 10.0 mi SE 12.7 mph - N/A   Mostly Cloudy
7:53 AM 81.0 °F 86.2 °F 73.9 °F 79% 30.00 in 10.0 mi SE 16.1 mph - N/A   Mostly Cloudy
8:53 AM 82.9 °F 90.2 °F 75.0 °F 77% 30.01 in 10.0 mi SE 13.8 mph - N/A   Mostly Cloudy
9:53 AM 84.9 °F 92.1 °F 73.9 °F 69% 30.01 in 10.0 mi SSE 17.3 mph - N/A   Scattered Clouds
10:53 AM 84.9 °F 93.3 °F 75.0 °F 72% 30.03 in 10.0 mi SSE 16.1 mph 26.5 mph N/A   Mostly Cloudy
11:53 AM 86.0 °F 93.8 °F 73.9 °F 67% 30.02 in 10.0 mi SSE 17.3 mph - N/A   Mostly Cloudy
12:53 PM 87.1 °F 95.4 °F 73.9 °F 65% 30.01 in 10.0 mi SE 16.1 mph - N/A   Mostly Cloudy
1:53 PM 86.0 °F 95.1 °F 75.0 °F 70% 30.00 in 10.0 mi SSE 12.7 mph - N/A   Scattered Clouds
2:53 PM 84.9 °F 91.4 °F 73.0 °F 67% 29.99 in 10.0 mi SE 13.8 mph - N/A   Mostly Cloudy
3:53 PM 82.9 °F 88.8 °F 73.0 °F 72% 29.97 in 10.0 mi SE 11.5 mph - N/A   Mostly Cloudy
4:53 PM 82.9 °F 89.4 °F 73.9 °F 74% 29.94 in 10.0 mi SE 12.7 mph - N/A   Mostly Cloudy
5:53 PM 82.9 °F 89.4 °F 73.9 °F 74% 29.95 in 10.0 mi ESE 10.4 mph - N/A   Mostly Cloudy
6:53 PM 82.0 °F 87.9 °F 73.9 °F 76% 29.94 in 10.0 mi ESE 11.5 mph - N/A   Mostly Cloudy
7:53 PM 80.1 °F 84.5 °F 73.9 °F 81% 29.95 in 10.0 mi ESE 11.5 mph - N/A   Mostly Cloudy
8:53 PM 80.1 °F 84.2 °F 73.0 °F 79% 29.96 in 10.0 mi ESE 12.7 mph - N/A   Mostly Cloudy
9:53 PM 80.1 °F 84.5 °F 73.9 °F 81% 29.98 in 10.0 mi ESE 13.8 mph - N/A   Mostly Cloudy
10:53 PM 80.1 °F 84.5 °F 73.9 °F 81% 29.99 in 10.0 mi East 11.5 mph - N/A   Partly Cloudy
11:53 PM 80.1 °F 84.2 °F 73.0 °F 79% 29.99 in 10.0 mi ESE 11.5 mph - N/A   Scattered Clouds